Location: Arlington
(35.2962°N, 89.6615°W)
Time: 05:21:14
(UTC+00:00)

Daily predictions for brighter satellites

Satellite Brightness Start Highest point End
(mag) Time Altitude Azimuth Time Altitude Azimuth Time Altitude Azimuth
Milstar 3 4.4 00:38:15 10° SSW 00:45:56 37° SSE 00:58:53 10° E
Meteor 1-16 Rocket 4.4 00:48:08 10° S 00:53:39 53° E 00:59:01 10° NNE
COSMOS 2406 3.5 00:49:42 10° NNW 00:55:28 77° WSW 01:01:11 10° SSE
Cosmos 1331 Rocket 4.2 00:55:32 10° SSW 01:00:43 81° WNW 01:06:00 10° NNE
Cosmos 1953 2.7 00:57:59 10° SSE 01:01:30 38° E 01:05:04 10° NNE
CZ-4B R/B 2.7 00:58:01 10° SSE 01:01:48 60° ENE 01:05:25 10° N
Cosmos 1850 Rocket 4.2 00:57:50 10° N 01:03:01 53° ENE 01:08:06 10° SSE
Cosmos 2297 3.9 00:59:42 10° SSW 01:05:20 82° WNW 01:11:03 10° NNE
Meteor PRIRODA 4.1 01:04:36 10° S 01:07:57 57° W 01:11:21 10° NNW
CZ-4B DEB 4.2 01:03:33 10° SSE 01:09:02 72° ENE 01:14:35 10° N
ADEOS Rocket 3.2 01:04:39 10° S 01:10:14 65° WSW 01:15:42 10° NNW
NOSS 3-1 (A) 4.4 01:11:09 10° SE 01:13:25 13° ESE 01:15:48 10° ENE
Cosmos 2369 Rocket 2.2 01:09:02 10° SSW 01:14:43 87° ESE 01:20:25 10° NNE
SJ 16-02 2.8 01:11:56 10° NNE 01:15:02 19° ENE 01:17:18 13° ESE
ADEOS 4.1 01:10:06 10° S 01:15:15 65° WSW 01:20:27 10° NNW
DELTA 2 DEB (DPAF) 4.4 01:12:12 10° NNE 01:16:13 41° E 01:20:13 10° S
Iridium 82 4.5 01:16:01 10° N 01:19:32 82° E 01:23:13 10° S
SL-8 Rocket 4.3 01:13:38 10° N 01:19:33 45° E 01:25:23 10° SSE
SPOT 1/Viking Rocket 3.6 01:18:25 10° SSE 01:23:31 58° ENE 01:28:37 10° N
Cosmos 2263 4.1 01:18:00 10° SSW 01:23:37 74° ESE 01:29:13 10° NNE
Cosmos 2098 Rocket 4.3 01:19:33 10° SSE 01:24:18 28° E 01:28:24 10° NNE
APEX 4.3 01:21:40 10° NW 01:24:35 33° WSW 01:27:17 10° S
CZ-4B R/B 3.4 01:23:22 10° SSE 01:28:53 58° ENE 01:34:23 10° N
Okean-O 4.3 01:28:34 15° E 01:29:44 16° ENE 01:32:29 10° NNE
Cosmos 2341 Rocket 4.0 01:24:34 10° N 01:30:48 63° E 01:36:57 10° SSE
Cosmos 1674 Rocket 4.2 01:26:44 10° NNW 01:31:07 60° W 01:35:28 10° S
Cosmos 1825 2.0 01:28:04 10° N 01:31:28 56° E 01:34:23 13° SSE
USA 234 3.4 01:28:21 15° ESE 01:33:45 61° NE 01:40:10 10° NW
NOSS 3-1 (C) 2.8 01:31:44 10° SSW 01:36:17 61° ESE 01:41:31 10° NE
Cosmos 2082 Rocket 4.4 01:34:23 10° NW 01:38:58 25° WSW 01:43:32 10° SSW
Hubble Space Telescope 1.8 01:36:45 10° WSW 01:40:16 30° S 01:41:39 24° SE
Resurs 1-3 4.0 01:37:43 10° S 01:42:00 62° W 01:46:19 10° NNW
Cosmos 2366 rocket 4.0 01:44:04 10° N 01:50:26 72° E 01:56:45 10° SSE
Okean O Rocket 1.6 01:49:28 24° SSE 01:51:55 59° ENE 01:56:12 10° N
Cosmos 1025 Rocket 2.9 01:47:39 10° N 01:52:02 83° E 01:55:30 16° S
ATLAS 3B R/B 2.9 01:51:00 10° S 01:57:32 51° ESE 02:04:35 10° NE
Resurs 01 Rocket 1.5 01:55:01 24° SSE 01:57:34 72° ENE 02:01:59 10° N
Cosmos 2218 Rocket 4.0 01:51:20 10° N 01:57:46 80° E 02:03:54 11° S
CARTOSAT-1 3.4 01:58:16 31° SSE 02:00:13 67° ENE 02:04:28 10° N
Cosmos 1346 Rocket 4.0 01:57:28 10° SSW 02:01:06 41° W 02:04:45 10° N
USA 281 3.4 01:59:34 27° SE 02:03:07 55° ENE 02:09:30 10° NNW
Cosmos 1975 Rocket 3.0 01:59:53 10° N 02:04:09 56° E 02:05:11 43° SE
Cosmos 1821 Rocket 4.1 02:00:01 10° N 02:06:01 51° E 02:08:32 32° SE
USA 129 4.4 02:04:07 10° N 02:05:08 18° NNW 02:05:08 18° NNW
Cosmos 1959 Rocket 4.4 02:01:47 10° N 02:07:56 89° W 02:13:23 14° S
Cosmos 1328 4.3 02:05:43 10° NNW 02:09:24 53° W 02:11:46 20° SSW
OAO 3 Rocket 3.1 02:07:13 10° W 02:12:07 85° S 02:13:29 48° ESE
USA 186 3.6 02:16:17 19° SW 02:17:48 28° W 02:20:30 10° NW
DELTA 2 R/B (1) 3.8 02:13:17 10° WNW 02:18:46 58° SSW 02:20:22 42° SSE
CZ-4 R/B 3.8 02:19:47 10° SW 02:22:43 20° W 02:25:38 10° NW
ATLAS 5 CENTAUR R/B 1.7 02:20:34 10° SW 02:23:47 50° NW 02:27:10 10° NNE
SPOT 5 3.5 02:24:44 41° ENE 02:24:54 42° ENE 02:29:53 10° N
Meteor 1-11 4.1 02:29:22 10° N 02:35:04 86° E 02:36:34 52° SSE
ERS-1 Rocket 4.1 02:36:16 29° NE 02:36:16 29° NE 02:39:37 10° N
Celestis-02/Orion 38 4.4 02:40:45 67° ENE 02:40:51 68° ENE 02:45:54 10° NNW
MOS 1 4.2 02:45:26 65° SSE 02:46:22 90° NE 02:52:06 10° NNW
Okean 2 Rocket 4.3 02:52:04 35° NNE 02:52:04 35° NNE 02:54:43 10° N
Cosmos 1934 Rocket 4.3 02:46:07 10° N 02:51:27 48° ENE 02:51:27 48° ENE
SJ 16-02 2.8 02:49:38 10° NW 02:53:24 30° W 02:54:07 28° WSW
OAO 1 Rocket 4.5 02:50:29 10° W 02:55:16 72° W 02:55:16 72° W
IRS-1C Rocket 4.0 02:56:50 78° N 02:56:50 78° N 03:01:47 10° NNW
Cosmos 2297 Rocket 4.1 02:57:03 10° NNE 02:59:36 17° NE 02:59:36 17° NE
NOSS 3-1 (A) 3.6 02:58:40 10° SW 03:03:20 54° NW 03:08:43 10° NNE
MetOp-B 4.2 03:05:02 75° WNW 03:05:02 75° WNW 03:10:05 10° NNW
Okean-O 3.8 03:06:02 38° W 03:06:02 38° W 03:09:54 10° NNW
Terra 3.2 03:09:26 30° N 03:09:26 30° N 03:11:58 10° N
USA 234 4.3 03:15:43 30° SW 03:16:54 32° SW 03:22:38 10° WNW
Ariane Rocket 4.3 03:27:13 35° N 03:27:13 35° N 03:30:08 10° N
ATLAS 3B R/B 4.3 03:42:19 10° WSW 03:48:31 33° NW 03:55:08 10° NNE
Cosmos 2227 Rocket 4.3 04:10:59 10° N 04:12:58 21° N 04:12:58 21° N
CZ-4C R/B 4.0 04:31:11 10° NNW 04:36:24 39° NNE 04:36:24 39° NNE
Cosmos 2297 Rocket 4.4 04:39:42 10° NNW 04:41:24 20° NW 04:41:24 20° NW
CENTAUR R/B 4.1 05:09:04 10° NNW 05:15:26 42° NNE 05:15:26 42° NNE
Cosmos 2219 Rocket 4.5 07:14:08 19° NNE 07:14:08 19° NNE 07:15:41 10° NNE
ADEOS II 4.3 07:34:41 10° NNE 07:36:44 21° NE 07:36:44 21° NE
CZ-2D R/B 3.9 07:47:08 10° NNE 07:49:32 27° NNE 07:49:32 27° NNE
SL-16 R/B 3.9 07:51:52 31° E 07:52:52 32° ENE 07:58:16 10° N
COSMOS 2428 3.9 08:10:38 38° NNE 08:10:38 38° NNE 08:14:02 10° NNE
CZ-2C R/B 4.0 08:17:16 33° N 08:17:16 33° N 08:20:09 10° N
Cosmos 2237 Rocket 3.4 08:16:42 36° E 08:16:42 36° E 08:20:58 10° NE
Lacrosse 5 4.2 08:21:30 15° NNW 08:21:30 15° NNW 08:23:39 10° N
ATLAS 2AS CENTAUR R/B 4.4 08:19:52 22° SE 08:22:00 25° ESE 08:27:43 10° ENE
CZ-2C R/B 4.2 08:20:23 10° NNE 08:23:30 38° NNE 08:23:30 38° NNE
ALOS 4.0 08:21:21 10° NNE 08:23:57 31° NE 08:23:57 31° NE
Resurs 1-4 Rocket 3.7 08:27:42 10° N 08:30:10 25° NNW 08:30:10 25° NNW
Cosmos 2333 Rocket 4.5 08:34:50 13° NW 08:34:50 13° NW 08:36:17 10° NNW
Nadezhda 4 Rocket 4.2 08:44:01 57° NNW 08:44:01 57° NNW 08:49:00 10° N
H-2A R/B 4.2 08:46:24 37° S 08:46:24 37° S 09:13:53 10° ESE
NOSS 0 Rocket 4.0 08:48:14 68° NNW 08:48:14 68° NNW 08:53:50 10° NNE
Cosmos 1680 Rocket 4.3 08:47:51 45° ESE 08:48:07 45° ESE 08:53:09 10° NNE
Cosmos 2278 Rocket 3.1 08:47:38 10° N 08:53:07 47° ENE 08:58:32 10° SE
Cosmos 1428 Rocket 4.3 08:53:48 84° SW 08:53:59 85° W 09:00:18 10° N
Cosmos 2219 Rocket 4.2 08:55:50 15° NW 08:55:50 15° NW 08:57:59 10° NNW
BREEZE-M DEB (TANK) 3.8 09:00:45 79° NNW 09:00:45 79° NNW 09:11:13 10° NE
RESURS DK-1 4.4 09:04:22 21° NNW 09:04:22 21° NNW 09:06:00 10° N
Meteor 2-10 4.4 08:59:03 10° N 09:04:42 68° E 09:07:22 32° SSE
SL-16 R/B 3.8 09:03:20 18° SSE 09:06:24 29° ESE 09:11:12 10° NE
Cosmos 1151 Rocket 3.7 09:07:55 49° N 09:07:55 49° N 09:11:07 10° N
METEOR-M 4.3 09:05:18 10° NNE 09:10:38 69° ESE 09:11:50 52° SSE
USA 308 4.4 09:12:46 25° ESE 09:12:46 25° ESE 09:15:26 10° ENE
CZ-2C R/B 3.2 09:07:36 10° NNE 09:12:39 51° E 09:14:38 33° SSE
Cosmos 921 Rocket 3.9 09:16:42 39° SE 09:17:27 43° E 09:21:31 10° NNE
ADEOS II 3.6 09:14:40 10° NNW 09:17:38 23° NW 09:17:38 23° NW
Cosmos 1626 4.0 09:18:47 21° ESE 09:19:33 22° E 09:22:12 10° NE
Meteor 1-19 Rocket 4.4 09:20:01 55° W 09:20:20 56° WNW 09:26:13 10° N
Cosmos 923 Rocket 4.0 09:23:20 57° WNW 09:23:24 57° WNW 09:28:34 10° N
Cosmos 1975 4.2 09:20:23 10° NNE 09:23:57 36° E 09:27:22 11° SSE
Cosmos 1092 Rocket 3.9 09:24:59 52° WSW 09:26:04 60° W 09:32:08 10° N
CZ-2D R/B 4.3 09:29:38 10° NW 09:30:50 12° NW 09:30:50 12° NW
Cosmos 2026 Rocket 4.1 09:32:12 45° WSW 09:33:33 53° W 09:39:43 10° N
Envisat 2.9 09:28:30 10° N 09:33:34 74° WNW 09:34:51 50° SW
BREEZE-M DEB (TANK) 3.5 09:34:04 37° W 09:35:40 46° NW 09:38:45 10° NE
SL-16 R/B 3.1 09:36:56 34° W 09:36:56 34° W 09:41:53 10° NNW
NOSS 2-2 (E) 4.4 09:31:22 10° NNW 09:36:31 85° ENE 09:43:56 10° SSE
EO 1 Delta rocket 4.3 09:37:24 10° N 09:41:43 41° WNW 09:41:49 41° W
Meteor 1-18 Rocket 4.2 09:39:20 23° S 09:42:59 85° E 09:48:42 10° N
Cosmos 1666 Rocket 3.7 09:41:03 10° N 09:45:31 76° E 09:49:55 10° S
CZ-4 R/B 4.3 09:45:08 10° N 09:49:29 37° WNW 09:49:58 36° W
NOSS 2-2 (D) 4.4 09:46:04 10° NNW 09:51:06 82° ENE 09:58:22 10° SSE
Meteor 2-4 Rocket 3.5 09:48:37 31° SSW 09:51:13 66° W 09:56:40 10° N
Thor Agena Rocket 3.4 09:46:19 10° N 09:51:19 69° WNW 09:53:50 30° SSW
Cosmos 1943 Rocket 2.2 09:46:36 10° NNW 09:52:18 84° ENE 09:57:57 10° SSE
YAOGAN 6 2.4 09:49:58 10° N 09:53:02 55° WNW 09:53:02 55° WNW
H-2A R/B 3.4 09:50:32 10° NNE 09:55:11 37° E 09:59:56 10° SSE
BlueWalker 3 3.9 09:52:54 10° NNW 09:56:18 29° NE 09:59:40 10° E
NOAA 11 4.4 09:54:11 10° N 09:59:27 52° WNW 10:02:18 26° SW
Cosmos 2237 Rocket 3.3 09:58:31 23° W 09:59:51 26° WNW 10:04:33 10° N
ALOS 4.1 10:00:08 10° NNW 10:02:16 14° WNW 10:02:16 14° WNW
Cosmos 1340 Rocket 3.6 10:04:12 29° WNW 10:04:12 29° WNW 10:07:33 10° NNW
Cosmos 1867 4.3 10:01:25 10° NW 10:06:07 30° WSW 10:10:46 10° S
DMSP B5D2-2 4.0 10:03:14 10° SSE 10:08:26 85° WSW 10:13:39 10° NNW
Cosmos 1328 Rocket 4.0 10:08:30 28° SW 10:10:16 41° W 10:14:28 10° N
ATLAS 2AS CENTAUR R/B 3.0 10:07:19 21° SW 10:12:27 61° WNW 10:19:38 10° NNE
Cosmos 1805 3.7 10:09:25 10° NNW 10:12:48 34° W 10:13:52 28° SW
CRYOSAT 2 4.3 10:09:04 10° N 10:13:58 89° ESE 10:18:50 10° S
Cosmos 1707 4.2 10:12:53 10° SSE 10:16:15 36° E 10:19:38 10° NNE
SWAS 4.3 10:15:02 10° NNW 10:19:12 66° WSW 10:23:21 10° SSE
Chandra Rocket (1) 3.0 10:18:55 21° SW 10:20:38 34° SSE 10:27:02 10° E
IRS-1D 4.2 10:17:53 10° N 10:22:32 36° WNW 10:26:05 16° SW
Cosmos 1633 Rocket 3.3 10:19:18 10° NNW 10:23:27 45° W 10:27:34 10° SSW
S3M 4.1 10:18:41 10° N 10:24:52 81° E 10:31:07 10° S
Cosmos 1048 Rocket 4.0 10:21:02 10° SSW 10:26:23 85° WNW 10:31:42 10° NNE
Cosmos 1943 4.4 10:22:08 10° S 10:27:28 43° ESE 10:32:50 10° NE
Cosmos 2266 Rocket 3.9 10:22:52 10° SSW 10:28:58 70° W 10:35:01 10° N
Cosmos 1655 Rocket 4.1 10:23:13 10° S 10:29:25 81° E 10:35:39 10° N
SL-08 ROCKET BODY 4.3 10:28:40 10° SSW 10:34:30 74° W 10:40:28 10° N
Cosmos 2278 Rocket 3.4 10:32:44 10° NW 10:36:44 20° W 10:40:45 10° SW
Cosmos 1461 4.1 10:39:42 10° WNW 10:42:13 17° WSW 10:44:45 10° SSW
ARIANE 5 R/B 3.6 10:37:18 10° NNE 10:42:23 50° E 10:47:24 10° S
Cosmos 1674 2.5 10:40:41 10° SSW 10:44:01 53° W 10:47:23 10° N
USA 308 3.7 10:41:23 13° W 10:44:12 31° NW 10:47:43 10° NNE
Delta 2 Rocket 4.4 10:40:59 11° SW 10:45:29 45° SSE 10:49:54 10° E
Cosmos 2056 Rocket 4.0 10:42:14 10° NNW 10:47:14 40° W 10:52:14 10° S
ATLAS 5 CENTAUR R/B 3.5 10:42:33 11° WSW 10:47:45 17° SSW 10:50:47 10° S
CZ-2C R/B 4.1 10:47:00 10° NNW 10:50:18 17° WNW 10:53:35 10° WSW
SL-16 R/B 3.0 10:45:18 10° SW 10:50:20 33° WNW 10:55:25 10° N
Cosmos 2315 Rocket 4.1 10:45:23 10° N 10:51:36 88° E 10:57:48 10° S
ARGOS 3.9 10:46:35 10° NNE 10:51:53 58° E 10:57:08 10° S
Cosmos 1766 3.6 10:49:26 10° NNW 10:52:51 37° W 10:56:15 10° SSW
Cosmos 1939 Rocket 2.7 10:49:11 10° N 10:52:55 66° WNW 10:56:40 10° SSW
Cosmos 1626 3.9 10:51:53 10° W 10:53:18 12° WNW 10:54:46 10° NW
Cosmos 1452 Rocket 4.1 10:49:14 10° N 10:54:26 63° ENE 10:59:36 10° SSE
Cosmos 1340 4.2 10:53:07 10° WNW 10:54:56 14° W 10:56:45 10° WSW
KORONAS-FOTON 4.0 10:52:38 10° SSW 10:56:10 45° W 10:59:42 10° N
Cosmos 1656 Rocket 3.8 10:55:29 10° NNW 11:00:55 81° ENE 11:06:20 10° SSE
NOSS 3-1 (C) 4.4 10:54:42 10° NNW 11:02:37 89° ENE 11:11:55 10° SSE
ASTRO E2 3.5 11:01:39 10° SW 11:04:52 33° SSE 11:08:05 10° ESE
CZ-3 R/B 3.1 11:05:57 10° WSW 11:22:35 45° S 11:28:11 10° ESE
